User: anonymous   Login
Location: Unspecified
(64.9000°N, 0.0000°E)
Time: 02:03:08
(UTC+00:00)
Language:

Vanguard 1 - Orbit

View from above orbital plane
View from above orbital plane
View from above satellite
View from above satellite

Ground track
Ground track

The orbit data is extracted from the following two-line orbital elements,

1     5U 58002B   19175.34253590  .00000007  00000-0  50106-6 0  9999
2     5  34.2442 254.3967 1841970 176.4930 185.0796 10.84762336166359
Epoch (UTC): 24 June 2019 08:13:15
Eccentricity: 0.1841970
inclination: 34.2442°
perigee height: 654 km
apogee height: 3830 km
right ascension of ascending node: 254.3967°
argument of perigee: 176.4930°
revolutions per day: 10.84762336
mean anomaly at epoch: 185.0796°
orbit number at epoch: 16635

The dashed part of the orbit path shows where the satellite is in the earth's shadow,  

DLR